Year,Month,Day,Hour,Minute,Value (Times are PST for windgust in km/hr)
2018,04,11,00,00,1.60
2018,04,11,00,01,1.60
2018,04,11,00,03,1.60
2018,04,11,00,04,1.60
2018,04,11,00,05,1.60
2018,04,11,00,06,1.60
2018,04,11,00,13,3.20
2018,04,11,00,14,1.60
2018,04,11,00,15,1.60
2018,04,11,00,19,1.60
2018,04,11,00,20,1.60
2018,04,11,00,21,1.60
2018,04,11,00,22,3.20
2018,04,11,00,23,1.60
2018,04,11,00,24,3.20
2018,04,11,00,25,3.20
2018,04,11,00,26,3.20
2018,04,11,00,27,4.80
2018,04,11,00,28,4.80
2018,04,11,00,29,4.80
2018,04,11,00,30,4.80
2018,04,11,00,31,3.20
2018,04,11,00,32,1.60
2018,04,11,00,37,3.20
2018,04,11,00,38,3.20
2018,04,11,00,40,1.60
2018,04,11,00,41,1.60
2018,04,11,00,42,1.60
2018,04,11,00,45,1.60
2018,04,11,00,46,3.20
2018,04,11,00,47,1.60
2018,04,11,00,48,1.60
2018,04,11,00,49,1.60
2018,04,11,00,50,1.60
2018,04,11,00,51,4.80
2018,04,11,00,52,4.80
2018,04,11,00,53,1.60
2018,04,11,00,54,1.60
2018,04,11,01,36,1.60
2018,04,11,01,37,1.60
2018,04,11,01,42,1.60
2018,04,11,01,43,1.60
2018,04,11,01,44,1.60
2018,04,11,01,45,1.60
2018,04,11,01,46,1.60
2018,04,11,01,47,3.20
2018,04,11,01,48,1.60
2018,04,11,01,49,1.60
2018,04,11,01,50,4.80
2018,04,11,01,51,6.40
2018,04,11,01,52,3.20
2018,04,11,01,53,1.60
2018,04,11,01,54,1.60
2018,04,11,01,55,6.40
2018,04,11,01,56,6.40
2018,04,11,01,57,3.20
2018,04,11,01,58,3.20
2018,04,11,01,59,4.80
2018,04,11,02,00,8.10
2018,04,11,02,01,6.40
2018,04,11,02,02,8.10
2018,04,11,02,03,8.10
2018,04,11,02,04,6.40
2018,04,11,02,05,1.60
2018,04,11,02,06,1.60
2018,04,11,02,08,1.60
2018,04,11,02,10,1.60
2018,04,11,02,12,1.60
2018,04,11,02,13,1.60
2018,04,11,02,15,1.60
2018,04,11,02,16,4.80
2018,04,11,02,17,4.80
2018,04,11,02,18,3.20
2018,04,11,02,19,1.60
2018,04,11,02,21,1.60
2018,04,11,02,22,3.20
2018,04,11,02,23,3.20
2018,04,11,02,24,1.60
2018,04,11,02,32,1.60
2018,04,11,02,33,3.20
2018,04,11,02,35,3.20
2018,04,11,02,36,3.20
2018,04,11,02,37,3.20
2018,04,11,02,45,3.20
2018,04,11,02,46,4.80
2018,04,11,02,47,4.80
2018,04,11,02,48,1.60
2018,04,11,02,49,1.60
2018,04,11,02,50,3.20
2018,04,11,02,51,1.60
2018,04,11,02,52,1.60
2018,04,11,02,53,1.60
2018,04,11,02,54,1.60
2018,04,11,02,55,4.80
2018,04,11,02,56,3.20
2018,04,11,02,57,1.60
2018,04,11,03,01,1.60
2018,04,11,03,04,1.60
2018,04,11,03,05,3.20
2018,04,11,03,06,3.20
2018,04,11,03,07,1.60
2018,04,11,03,08,1.60
2018,04,11,03,09,3.20
2018,04,11,03,10,4.80
2018,04,11,03,11,3.20
2018,04,11,03,12,1.60
2018,04,11,03,20,1.60
2018,04,11,03,24,1.60
2018,04,11,03,32,1.60
2018,04,11,03,33,1.60
2018,04,11,03,34,1.60
2018,04,11,03,35,3.20
2018,04,11,03,36,3.20
2018,04,11,03,37,3.20
2018,04,11,03,38,3.20
2018,04,11,03,39,4.80
2018,04,11,03,40,6.40
2018,04,11,03,41,3.20
2018,04,11,03,42,3.20
2018,04,11,03,43,3.20
2018,04,11,03,44,3.20
2018,04,11,03,45,6.40
2018,04,11,03,46,6.40
2018,04,11,03,47,9.60
2018,04,11,03,48,8.10
2018,04,11,03,49,8.10
2018,04,11,03,50,8.10
2018,04,11,03,51,6.40
2018,04,11,03,52,3.20
2018,04,11,03,54,3.20
2018,04,11,03,55,6.40
2018,04,11,03,56,1.60
2018,04,11,03,57,1.60
2018,04,11,03,58,1.60
2018,04,11,03,59,1.60
2018,04,11,04,00,1.60
2018,04,11,04,01,4.80
2018,04,11,04,02,4.80
2018,04,11,04,03,4.80
2018,04,11,04,04,3.20
2018,04,11,04,05,3.20
2018,04,11,04,06,3.20
2018,04,11,04,07,4.80
2018,04,11,04,08,3.20
2018,04,11,04,09,4.80
2018,04,11,04,10,3.20
2018,04,11,04,11,3.20
2018,04,11,04,12,4.80
2018,04,11,04,13,3.20
2018,04,11,04,14,1.60
2018,04,11,04,15,1.60
2018,04,11,04,16,4.80
2018,04,11,04,17,6.40
2018,04,11,04,18,6.40
2018,04,11,04,19,1.60
2018,04,11,04,20,8.10
2018,04,11,04,21,8.10
2018,04,11,04,22,8.10
2018,04,11,04,23,6.40
2018,04,11,04,24,6.40
2018,04,11,04,25,4.80
2018,04,11,04,31,3.20
2018,04,11,04,32,3.20
2018,04,11,04,33,3.20
2018,04,11,04,34,4.80
2018,04,11,04,35,1.60
2018,04,11,04,37,1.60
2018,04,11,04,39,1.60
2018,04,11,04,40,4.80
2018,04,11,04,41,6.40
2018,04,11,04,42,4.80
2018,04,11,04,43,3.20
2018,04,11,04,44,3.20
2018,04,11,04,47,1.60
2018,04,11,04,48,8.10
2018,04,11,04,49,6.40
2018,04,11,04,50,4.80
2018,04,11,04,51,6.40
2018,04,11,04,52,4.80
2018,04,11,04,53,6.40
2018,04,11,04,54,6.40
2018,04,11,04,55,11.30
2018,04,11,04,56,9.60
2018,04,11,04,57,6.40
2018,04,11,04,58,4.80
2018,04,11,05,02,1.60
2018,04,11,05,03,3.20
2018,04,11,05,04,3.20
2018,04,11,05,05,3.20
2018,04,11,05,07,3.20
2018,04,11,05,08,4.80
2018,04,11,05,09,4.80
2018,04,11,05,10,6.40
2018,04,11,05,11,4.80
2018,04,11,05,12,8.10
2018,04,11,05,13,8.10
2018,04,11,05,14,11.30
2018,04,11,05,15,9.60
2018,04,11,05,16,9.60
2018,04,11,05,17,9.60
2018,04,11,05,18,9.60
2018,04,11,05,19,3.20
2018,04,11,05,20,6.40
2018,04,11,05,21,4.80
2018,04,11,05,22,6.40
2018,04,11,05,23,6.40
2018,04,11,05,24,4.80
2018,04,11,05,25,1.60
2018,04,11,05,26,1.60
2018,04,11,05,27,4.80
2018,04,11,05,28,6.40
2018,04,11,05,29,4.80
2018,04,11,05,30,4.80
2018,04,11,05,31,8.10
2018,04,11,05,32,8.10
2018,04,11,05,33,8.10
2018,04,11,05,34,9.60
2018,04,11,05,35,8.10
2018,04,11,05,36,4.80
2018,04,11,05,37,3.20
2018,04,11,05,38,1.60
2018,04,11,05,46,1.60
2018,04,11,05,47,1.60
2018,04,11,05,48,1.60
2018,04,11,05,52,3.20
2018,04,11,05,53,3.20
2018,04,11,05,58,3.20
2018,04,11,05,59,1.60
2018,04,11,06,01,1.60
2018,04,11,06,02,1.60
2018,04,11,06,03,1.60
2018,04,11,06,04,1.60
2018,04,11,06,05,1.60
2018,04,11,06,06,1.60
2018,04,11,06,07,1.60
2018,04,11,06,08,1.60
2018,04,11,06,09,1.60
2018,04,11,06,11,1.60
2018,04,11,06,12,1.60
2018,04,11,06,28,1.60
2018,04,11,06,39,1.60
2018,04,11,06,40,3.20
2018,04,11,06,41,3.20
2018,04,11,06,47,1.60
2018,04,11,06,52,1.60
2018,04,11,06,54,1.60
2018,04,11,06,55,4.80
2018,04,11,06,56,3.20
2018,04,11,06,57,3.20
2018,04,11,06,58,4.80
2018,04,11,06,59,4.80
2018,04,11,07,00,4.80
2018,04,11,07,01,4.80
2018,04,11,07,02,4.80
2018,04,11,07,03,4.80
2018,04,11,07,04,6.40
2018,04,11,07,05,8.10
2018,04,11,07,06,3.20
2018,04,11,07,07,6.40
2018,04,11,07,08,8.10
2018,04,11,07,09,8.10
2018,04,11,07,10,4.80
2018,04,11,07,11,6.40
2018,04,11,07,12,6.40
2018,04,11,07,13,6.40
2018,04,11,07,14,6.40
2018,04,11,07,15,6.40
2018,04,11,07,16,9.60
2018,04,11,07,17,6.40
2018,04,11,07,18,3.20
2018,04,11,07,19,3.20
2018,04,11,07,20,4.80
2018,04,11,07,21,3.20
2018,04,11,07,22,8.10
2018,04,11,07,23,8.10
2018,04,11,07,24,6.40
2018,04,11,07,25,1.60
2018,04,11,07,33,1.60
2018,04,11,07,34,3.20
2018,04,11,07,35,3.20
2018,04,11,07,36,1.60
2018,04,11,07,37,3.20
2018,04,11,07,42,3.20
2018,04,11,07,43,4.80
2018,04,11,07,44,6.40
2018,04,11,07,45,3.20
2018,04,11,07,49,3.20
2018,04,11,07,50,4.80
2018,04,11,07,51,1.60
2018,04,11,07,54,1.60
2018,04,11,07,55,3.20
2018,04,11,07,56,6.40
2018,04,11,07,57,6.40
2018,04,11,07,58,4.80
2018,04,11,07,59,3.20
2018,04,11,08,03,1.60
2018,04,11,08,04,4.80
2018,04,11,08,05,4.80
2018,04,11,08,06,6.40
2018,04,11,08,07,4.80
2018,04,11,08,08,6.40
2018,04,11,08,09,8.10
2018,04,11,08,10,8.10
2018,04,11,08,11,8.10
2018,04,11,08,12,6.40
2018,04,11,08,13,6.40
2018,04,11,08,14,6.40
2018,04,11,08,15,4.80
2018,04,11,08,16,4.80
2018,04,11,08,17,4.80
2018,04,11,08,18,6.40
2018,04,11,08,19,4.80
2018,04,11,08,20,4.80
2018,04,11,08,21,4.80
2018,04,11,08,22,3.20
2018,04,11,08,23,4.80
2018,04,11,08,24,1.60
2018,04,11,08,25,1.60
2018,04,11,08,26,1.60
2018,04,11,08,27,6.40
2018,04,11,08,28,6.40
2018,04,11,08,29,4.80
2018,04,11,08,30,4.80
2018,04,11,08,31,4.80
2018,04,11,08,32,4.80
2018,04,11,08,33,3.20
2018,04,11,08,34,1.60
2018,04,11,08,35,4.80
2018,04,11,08,36,3.20
2018,04,11,08,37,4.80
2018,04,11,08,38,6.40
2018,04,11,08,39,6.40
2018,04,11,08,40,3.20
2018,04,11,08,41,4.80
2018,04,11,08,42,4.80
2018,04,11,08,43,6.40
2018,04,11,08,44,6.40
2018,04,11,08,45,4.80
2018,04,11,08,46,1.60
2018,04,11,08,47,1.60
2018,04,11,08,48,1.60
2018,04,11,08,49,3.20
2018,04,11,08,50,1.60
2018,04,11,08,54,6.40
2018,04,11,08,55,6.40
2018,04,11,08,56,6.40
2018,04,11,08,57,4.80
2018,04,11,09,01,1.60
2018,04,11,09,02,1.60
2018,04,11,09,03,3.20
2018,04,11,09,04,1.60
2018,04,11,09,05,3.20
2018,04,11,09,06,3.20
2018,04,11,09,07,3.20
2018,04,11,09,08,4.80
2018,04,11,09,09,6.40
2018,04,11,09,10,6.40
2018,04,11,09,11,4.80
2018,04,11,09,12,4.80
2018,04,11,09,13,1.60
2018,04,11,09,14,1.60
2018,04,11,09,15,3.20
2018,04,11,09,16,4.80
2018,04,11,09,17,6.40
2018,04,11,09,18,6.40
2018,04,11,09,19,4.80
2018,04,11,09,20,6.40
2018,04,11,09,21,4.80
2018,04,11,09,22,1.60
2018,04,11,09,24,3.20
2018,04,11,09,25,4.80
2018,04,11,09,26,4.80
2018,04,11,09,27,6.40
2018,04,11,09,28,8.10
2018,04,11,09,29,6.40
2018,04,11,09,30,3.20
2018,04,11,09,31,1.60
2018,04,11,09,32,4.80
2018,04,11,09,33,6.40
2018,04,11,09,34,3.20
2018,04,11,09,35,6.40
2018,04,11,09,36,8.10
2018,04,11,09,37,8.10
2018,04,11,09,38,6.40
2018,04,11,09,39,3.20
2018,04,11,09,40,1.60
2018,04,11,09,41,3.20
2018,04,11,09,42,9.60
2018,04,11,09,43,9.60
2018,04,11,09,44,4.80
2018,04,11,09,45,4.80
2018,04,11,09,46,3.20
2018,04,11,09,49,4.80
2018,04,11,09,50,9.60
2018,04,11,09,51,9.60
2018,04,11,09,52,3.20
2018,04,11,09,53,3.20
2018,04,11,09,54,8.10
2018,04,11,09,55,6.40
2018,04,11,09,56,8.10
2018,04,11,09,57,8.10
2018,04,11,09,58,3.20
2018,04,11,09,59,1.60
2018,04,11,10,00,1.60
2018,04,11,10,05,1.60
2018,04,11,10,08,3.20
2018,04,11,10,09,3.20
2018,04,11,10,10,3.20
2018,04,11,10,11,3.20
2018,04,11,10,12,6.40
2018,04,11,10,13,6.40
2018,04,11,10,14,3.20
2018,04,11,10,15,4.80
2018,04,11,10,16,6.40
2018,04,11,10,17,3.20
2018,04,11,10,18,1.60
2018,04,11,10,19,1.60
2018,04,11,10,20,3.20
2018,04,11,10,21,1.60
2018,04,11,10,22,3.20
2018,04,11,10,23,4.80
2018,04,11,10,24,4.80
2018,04,11,10,25,4.80
2018,04,11,10,26,3.20
2018,04,11,10,27,3.20
2018,04,11,10,28,3.20
2018,04,11,10,31,1.60
2018,04,11,10,43,1.60
2018,04,11,10,45,1.60
2018,04,11,10,46,1.60
2018,04,11,10,49,3.20
2018,04,11,10,50,3.20
2018,04,11,10,51,1.60
2018,04,11,10,52,1.60
2018,04,11,10,54,1.60
2018,04,11,10,55,1.60
2018,04,11,10,56,1.60
2018,04,11,10,57,3.20
2018,04,11,10,58,1.60
2018,04,11,10,59,1.60
2018,04,11,11,00,1.60
2018,04,11,11,02,1.60
2018,04,11,11,03,1.60
2018,04,11,11,04,1.60
2018,04,11,11,05,3.20
2018,04,11,11,06,3.20
2018,04,11,11,07,3.20
2018,04,11,11,08,3.20
2018,04,11,11,09,6.40
2018,04,11,11,10,6.40
2018,04,11,11,11,8.10
2018,04,11,11,12,1.60
2018,04,11,11,13,1.60
2018,04,11,11,14,1.60
2018,04,11,11,15,3.20
2018,04,11,11,16,1.60
2018,04,11,11,20,1.60
2018,04,11,11,45,1.60
2018,04,11,11,58,1.60
2018,04,11,12,00,1.60
2018,04,11,12,01,1.60
2018,04,11,12,03,1.60
2018,04,11,12,04,1.60
2018,04,11,12,06,1.60
2018,04,11,12,07,1.60
2018,04,11,12,08,1.60
2018,04,11,12,09,3.20
2018,04,11,12,10,3.20
2018,04,11,12,11,3.20
2018,04,11,12,12,3.20
2018,04,11,12,13,3.20
2018,04,11,12,14,4.80
2018,04,11,12,15,4.80
2018,04,11,12,16,4.80
2018,04,11,12,17,6.40
2018,04,11,12,18,8.10
2018,04,11,12,19,6.40
2018,04,11,12,20,3.20
2018,04,11,12,21,4.80
2018,04,11,12,22,4.80
2018,04,11,12,23,4.80
2018,04,11,12,24,4.80
2018,04,11,12,25,3.20
2018,04,11,12,26,6.40
2018,04,11,12,27,4.80
2018,04,11,12,28,6.40
2018,04,11,12,29,4.80
2018,04,11,12,30,4.80
2018,04,11,12,31,6.40
2018,04,11,12,32,4.80
2018,04,11,12,33,1.60
2018,04,11,12,34,6.40
2018,04,11,12,35,3.20
2018,04,11,12,36,4.80
2018,04,11,12,37,4.80
2018,04,11,12,38,3.20
2018,04,11,12,39,1.60
2018,04,11,12,40,1.60
2018,04,11,12,41,4.80
2018,04,11,12,42,4.80
2018,04,11,12,43,6.40
2018,04,11,12,44,4.80
2018,04,11,12,45,4.80
2018,04,11,12,46,8.10
2018,04,11,12,47,6.40
2018,04,11,12,48,6.40
2018,04,11,12,49,8.10
2018,04,11,12,50,6.40
2018,04,11,12,51,8.10
2018,04,11,12,52,4.80
2018,04,11,12,53,8.10
2018,04,11,12,54,8.10
2018,04,11,12,55,6.40
2018,04,11,12,56,6.40
2018,04,11,12,57,4.80
2018,04,11,12,58,6.40
2018,04,11,12,59,6.40
2018,04,11,13,00,8.10
2018,04,11,13,01,8.10
2018,04,11,13,02,3.20
2018,04,11,13,03,4.80
2018,04,11,13,04,4.80
2018,04,11,13,05,6.40
2018,04,11,13,06,6.40
2018,04,11,13,07,6.40
2018,04,11,13,08,8.10
2018,04,11,13,09,8.10
2018,04,11,13,10,6.40
2018,04,11,13,11,6.40
2018,04,11,13,12,4.80
2018,04,11,13,13,3.20
2018,04,11,13,14,4.80
2018,04,11,13,15,3.20
2018,04,11,13,16,4.80
2018,04,11,13,17,6.40
2018,04,11,13,18,6.40
2018,04,11,13,19,6.40
2018,04,11,13,20,3.20
2018,04,11,13,21,3.20
2018,04,11,13,22,3.20
2018,04,11,13,23,4.80
2018,04,11,13,24,1.60
2018,04,11,13,26,1.60
2018,04,11,13,27,1.60
2018,04,11,13,29,1.60
2018,04,11,13,30,1.60
2018,04,11,13,31,3.20
2018,04,11,13,32,4.80
2018,04,11,13,33,4.80
2018,04,11,13,34,4.80
2018,04,11,13,35,6.40
2018,04,11,13,36,4.80
2018,04,11,13,37,3.20
2018,04,11,13,38,6.40
2018,04,11,13,39,6.40
2018,04,11,13,40,4.80
2018,04,11,13,41,4.80
2018,04,11,13,42,4.80
2018,04,11,13,43,4.80
2018,04,11,13,44,1.60
2018,04,11,13,45,1.60
2018,04,11,13,46,1.60
2018,04,11,13,47,1.60
2018,04,11,13,48,1.60
2018,04,11,13,51,1.60
2018,04,11,13,55,1.60
2018,04,11,13,56,1.60
2018,04,11,13,57,1.60
2018,04,11,13,58,3.20
2018,04,11,13,59,1.60
2018,04,11,14,00,1.60
2018,04,11,14,01,1.60
2018,04,11,14,02,1.60
2018,04,11,14,03,3.20
2018,04,11,14,04,1.60
2018,04,11,14,05,1.60
2018,04,11,14,06,3.20
2018,04,11,14,07,1.60
2018,04,11,14,08,1.60
2018,04,11,14,09,1.60
2018,04,11,14,10,1.60
2018,04,11,14,11,1.60
2018,04,11,14,12,3.20
2018,04,11,14,13,3.20
2018,04,11,14,14,3.20
2018,04,11,14,15,1.60
2018,04,11,14,18,1.60
2018,04,11,14,19,1.60
2018,04,11,14,21,1.60
2018,04,11,14,22,3.20
2018,04,11,14,23,3.20
2018,04,11,14,24,4.80
2018,04,11,14,25,3.20
2018,04,11,14,26,1.60
2018,04,11,14,27,1.60
2018,04,11,14,28,1.60
2018,04,11,14,29,1.60
2018,04,11,14,30,1.60
2018,04,11,14,32,1.60
2018,04,11,14,38,1.60
2018,04,11,14,40,1.60
2018,04,11,14,42,1.60
2018,04,11,14,53,1.60
2018,04,11,14,57,1.60
2018,04,11,14,58,1.60
2018,04,11,14,59,1.60
2018,04,11,15,06,1.60
2018,04,11,15,07,1.60
2018,04,11,15,08,1.60
2018,04,11,15,09,1.60
2018,04,11,15,10,3.20
2018,04,11,15,12,1.60
2018,04,11,15,13,1.60
2018,04,11,15,15,1.60
2018,04,11,15,16,1.60
2018,04,11,15,17,3.20
2018,04,11,15,18,3.20
2018,04,11,15,21,1.60
2018,04,11,15,24,1.60
2018,04,11,15,31,1.60
2018,04,11,15,33,1.60
2018,04,11,15,34,1.60
2018,04,11,15,35,1.60
2018,04,11,15,36,1.60
2018,04,11,15,37,1.60
2018,04,11,15,38,1.60
2018,04,11,15,45,1.60
2018,04,11,15,56,1.60
2018,04,11,15,57,3.20
2018,04,11,15,58,4.80
2018,04,11,15,59,3.20
2018,04,11,16,00,6.40
2018,04,11,16,01,6.40
2018,04,11,16,02,8.10
2018,04,11,16,03,6.40
2018,04,11,16,04,4.80
2018,04,11,16,05,8.10
2018,04,11,16,06,8.10
2018,04,11,16,07,11.30
2018,04,11,16,08,11.30
2018,04,11,16,09,6.40
2018,04,11,16,10,9.60
2018,04,11,16,11,8.10
2018,04,11,16,12,6.40
2018,04,11,16,13,6.40
2018,04,11,16,14,6.40
2018,04,11,16,15,4.80
2018,04,11,16,16,6.40
2018,04,11,16,17,4.80
2018,04,11,16,18,4.80
2018,04,11,16,19,4.80
2018,04,11,16,20,4.80
2018,04,11,16,21,1.60
2018,04,11,16,22,4.80
2018,04,11,16,23,3.20
2018,04,11,16,24,4.80
2018,04,11,16,25,1.60
2018,04,11,16,26,6.40
2018,04,11,16,27,4.80
2018,04,11,16,28,4.80
2018,04,11,16,29,3.20
2018,04,11,16,30,3.20
2018,04,11,16,31,4.80
2018,04,11,16,32,1.60
2018,04,11,16,33,8.10
2018,04,11,16,34,6.40
2018,04,11,16,35,6.40
2018,04,11,16,36,6.40
2018,04,11,16,37,8.10
2018,04,11,16,38,8.10
2018,04,11,16,39,6.40
2018,04,11,16,40,6.40
2018,04,11,16,41,6.40
2018,04,11,16,42,6.40
2018,04,11,16,43,6.40
2018,04,11,16,44,6.40
2018,04,11,16,45,6.40
2018,04,11,16,46,3.20
2018,04,11,16,47,4.80
2018,04,11,16,48,3.20
2018,04,11,16,49,1.60
2018,04,11,16,50,3.20
2018,04,11,16,51,3.20
2018,04,11,16,52,4.80
2018,04,11,16,53,3.20
2018,04,11,16,54,3.20
2018,04,11,16,55,4.80
2018,04,11,16,56,3.20
2018,04,11,16,57,3.20
2018,04,11,16,58,1.60
2018,04,11,16,59,1.60
2018,04,11,17,00,3.20
2018,04,11,17,01,1.60
2018,04,11,17,02,1.60
2018,04,11,17,03,1.60
2018,04,11,17,04,1.60
2018,04,11,17,05,3.20
2018,04,11,17,06,1.60
2018,04,11,17,07,4.80
2018,04,11,17,08,3.20
2018,04,11,17,09,1.60
2018,04,11,17,10,3.20
2018,04,11,17,11,4.80
2018,04,11,17,12,4.80
2018,04,11,17,13,3.20
2018,04,11,17,14,4.80
2018,04,11,17,15,3.20
2018,04,11,17,16,3.20
2018,04,11,17,17,3.20
2018,04,11,17,18,3.20
2018,04,11,17,19,3.20
2018,04,11,17,20,1.60
2018,04,11,17,21,1.60
2018,04,11,17,22,1.60
2018,04,11,17,23,1.60
2018,04,11,17,24,3.20
2018,04,11,17,25,1.60
2018,04,11,17,26,4.80
2018,04,11,17,27,3.20
2018,04,11,17,28,1.60
2018,04,11,17,29,3.20
2018,04,11,17,30,1.60
2018,04,11,17,31,1.60
2018,04,11,17,32,3.20
2018,04,11,17,33,3.20
2018,04,11,17,34,3.20
2018,04,11,17,35,1.60
2018,04,11,17,36,1.60
2018,04,11,17,37,1.60
2018,04,11,17,38,3.20
2018,04,11,17,39,4.80
2018,04,11,17,40,3.20
2018,04,11,17,41,3.20
2018,04,11,17,42,3.20
2018,04,11,17,43,3.20
2018,04,11,17,44,3.20
2018,04,11,17,45,4.80
2018,04,11,17,46,4.80
2018,04,11,17,47,3.20
2018,04,11,17,48,4.80
2018,04,11,17,49,4.80
2018,04,11,17,50,4.80
2018,04,11,17,51,6.40
2018,04,11,17,52,4.80
2018,04,11,17,53,3.20
2018,04,11,17,54,1.60
2018,04,11,17,55,3.20
2018,04,11,17,56,3.20
2018,04,11,17,57,4.80
2018,04,11,17,58,4.80
2018,04,11,17,59,4.80
2018,04,11,18,00,4.80
2018,04,11,18,01,3.20
2018,04,11,18,02,4.80
2018,04,11,18,03,3.20
2018,04,11,18,04,1.60
2018,04,11,18,05,1.60
2018,04,11,18,06,3.20
2018,04,11,18,08,1.60
2018,04,11,18,09,3.20
2018,04,11,18,10,1.60
2018,04,11,18,11,3.20
2018,04,11,18,12,4.80
2018,04,11,18,13,4.80
2018,04,11,18,14,3.20
2018,04,11,18,15,6.40
2018,04,11,18,16,4.80
2018,04,11,18,17,3.20
2018,04,11,18,18,3.20
2018,04,11,18,19,4.80
2018,04,11,18,20,3.20
2018,04,11,18,21,3.20
2018,04,11,18,22,3.20
2018,04,11,18,23,1.60
2018,04,11,18,25,1.60
2018,04,11,18,26,1.60
2018,04,11,18,27,3.20
2018,04,11,18,28,3.20
2018,04,11,18,29,1.60
2018,04,11,19,00,1.60
2018,04,11,19,28,1.60
2018,04,11,19,29,1.60
2018,04,11,19,30,1.60
2018,04,11,19,31,1.60
2018,04,11,19,32,1.60
2018,04,11,19,33,1.60
2018,04,11,19,34,1.60
2018,04,11,19,35,1.60
2018,04,11,19,43,3.20
2018,04,11,19,44,11.30
2018,04,11,19,45,8.10
2018,04,11,19,46,6.40
2018,04,11,19,47,4.80
2018,04,11,19,48,3.20
2018,04,11,19,49,8.10
2018,04,11,19,50,11.30
2018,04,11,19,51,8.10
2018,04,11,19,52,12.90
2018,04,11,19,53,11.30
2018,04,11,19,54,17.70
2018,04,11,19,55,14.50
2018,04,11,19,56,19.30
2018,04,11,19,57,16.10
2018,04,11,19,58,20.90
2018,04,11,19,59,24.20
2018,04,11,20,00,19.30
2018,04,11,20,01,20.90
2018,04,11,20,02,24.20
2018,04,11,20,03,22.50
2018,04,11,20,04,17.70
2018,04,11,20,05,16.10
2018,04,11,20,06,16.10
2018,04,11,20,07,16.10
2018,04,11,20,08,14.50
2018,04,11,20,09,12.90
2018,04,11,20,10,16.10
2018,04,11,20,11,12.90
2018,04,11,20,12,17.70
2018,04,11,20,13,16.10
2018,04,11,20,14,11.30
2018,04,11,20,15,11.30
2018,04,11,20,16,16.10
2018,04,11,20,17,11.30
2018,04,11,20,18,6.40
2018,04,11,20,19,4.80
2018,04,11,20,20,4.80
2018,04,11,20,21,1.60
2018,04,11,20,22,1.60
2018,04,11,20,27,3.20
2018,04,11,20,28,4.80
2018,04,11,20,30,1.60
2018,04,11,20,31,1.60
2018,04,11,21,23,1.60
2018,04,11,21,42,1.60
2018,04,11,23,00,4.80
2018,04,11,23,01,4.80
2018,04,11,23,02,3.20
2018,04,11,23,03,3.20
2018,04,11,23,04,3.20
2018,04,11,23,05,3.20
2018,04,11,23,07,1.60
2018,04,11,23,08,1.60
2018,04,11,23,09,1.60
2018,04,11,23,10,3.20
2018,04,11,23,11,3.20
2018,04,11,23,12,4.80
2018,04,11,23,13,1.60
2018,04,11,23,14,1.60
2018,04,11,23,15,3.20
2018,04,11,23,16,3.20
2018,04,11,23,17,4.80
2018,04,11,23,18,4.80
2018,04,11,23,19,4.80
2018,04,11,23,20,3.20
2018,04,11,23,21,1.60
2018,04,11,23,22,4.80
2018,04,11,23,23,3.20
2018,04,11,23,24,3.20
2018,04,11,23,25,4.80
2018,04,11,23,26,4.80
2018,04,11,23,27,3.20
2018,04,11,23,28,3.20
2018,04,11,23,29,3.20
2018,04,11,23,30,4.80
2018,04,11,23,31,3.20
2018,04,11,23,32,4.80
2018,04,11,23,33,4.80
2018,04,11,23,34,4.80
2018,04,11,23,35,6.40
2018,04,11,23,36,4.80
2018,04,11,23,37,4.80
2018,04,11,23,38,4.80
2018,04,11,23,39,3.20
2018,04,11,23,44,1.60
2018,04,11,23,45,1.60
2018,04,11,23,46,3.20
2018,04,11,23,47,3.20
2018,04,11,23,48,1.60
2018,04,11,23,49,1.60
2018,04,11,23,53,1.60
